Wind_Speed
4 4 2 4 7 7 7 7 6 5 6 7 5 5 3 3 2 3 3 4 1 3 5 5 5 8 9 11 12 10 6 5 9 9 10 10 9 9 9 10 11 11 12 13 16 20 24 28 32 32 32 32 32 32 34 35 36 37 37 38 39 39 38 38 38 39 39 38 37 37 38 41 41 40 39 39 39 38 38 37 36 36 36 36 38 38
5 5 6 7 9 7 6 6 6 6 5 5 6 5 2 2 2 3 2 4 1 2 4 3 4 10 10 11 11 9 7 8 10 10 11 12 11 9 10 12 12 10 10 9 11 15 19 24 27 29 29 30 31 32 34 35 37 38 37 38 38 38 38 39 40 40 41 41 40 39 40 40 39 39 40 40 40 38 37 36 36 36 36 36 37 37
4 2 9 8 6 4 4 5 7 6 5 5 4 5 2 1 2 3 4 5 3 1 4 5 6 11 10 10 12 11 9 9 9 10 11 11 10 10 11 12 11 10 10 9 9 12 17 22 24 26 27 30 33 33 34 35 36 35 36 37 38 37 38 39 40 40 41 42 41 38 37 36 35 36 39 40 39 38 37 36 36 36 36 37 37 36
2 5 8 5 5 7 6 4 7 6 4 4 4 4 2 2 1 2 4 4 3 2 2 4 6 10 8 6 10 10 8 8 7 8 10 9 10 12 11 9 10 11 12 11 9 10 13 17 19 22 27 31 32 32 32 33 34 35 36 38 38 38 39 39 39 40 40 39 37 35 33 31 31 32 34 35 36 37 38 38 38 37 38 37 37 37
5 6 3 5 5 6 6 4 6 6 1 1 3 5 3 3 3 3 2 2 3 4 3 4 6 7 5 5 7 7 4 6 5 5 8 8 9 11 10 10 10 11 10 10 10 9 9 14 18 23 27 28 30 31 33 34 35 36 37 38 38 38 38 38 39 39 38 36 34 33 30 27 26 27 28 30 34 36 37 39 40 40 39 38 38 38
5 5 2 7 5 4 6 2 3 7 2 3 2 5 6 6 6 2 2 4 4 4 4 5 4 6 5 4 7 6 6 7 5 5 8 8 7 8 9 11 10 9 9 8 10 8 7 13 18 20 22 25 28 33 34 35 35 36 36 37 37 37 37 37 37 37 37 37 35 33 31 29 27 27 29 33 36 37 38 39 39 39 39 39 39 38
2 2 4 6 5 6 6 2 3 5 5 1 4 5 6 7 7 4 2 4 2 3 3 4 4 5 7 5 8 6 7 9 8 6 9 9 8 7 7 8 7 7 8 7 8 8 8 12 15 17 22 26 29 32 32 32 32 33 33 34 35 36 36 36 36 36 36 36 36 35 35 34 32 32 35 38 37 35 36 37 37 37 38 39 39 39
2 3 6 6 6 6 4 2 4 6 7 3 3 6 7 7 7 5 4 3 2 3 4 4 4 2 6 5 7 5 6 10 10 9 11 9 8 8 7 7 7 7 7 6 7 8 8 11 14 17 22 26 28 28 27 28 30 31 31 32 33 34 35 35 35 35 36 36 37 37 36 36 36 37 38 37 34 34 34 34 36 37 38 39 40 40
1 3 3 5 6 3 4 4 4 7 6 4 4 7 6 6 6 5 6 3 1 2 4 5 2 2 6 7 5 5 5 8 9 10 11 9 8 9 8 7 7 7 6 6 7 7 8 11 14 16 18 21 23 23 24 26 28 28 29 29 30 32 33 34 34 34 35 36 37 37 37 37 38 39 38 35 33 33 33 34 36 37 38 39 39 40
1 3 5 7 5 4 4 3 4 5 3 3 5 7 5 6 6 5 5 3 3 2 5 6 2 2 5 7 4 3 3 6 8 8 8 8 7 7 7 6 6 6 5 3 4 6 8 10 12 13 14 16 19 20 21 23 24 25 26 27 28 30 31 32 32 33 34 35 36 37 38 39 39 38 37 34 33 33 33 34 36 36 38 38 39 40
2 1 2 4 3 5 5 2 2 3 4 6 6 7 6 6 5 4 3 4 3 3 6 7 3 2 4 7 4 3 4 4 3 5 7 7 7 7 7 6 6 6 5 5 5 5 6 6 7 9 11 13 14 17 19 20 22 23 24 26 28 29 29 30 31 32 33 34 36 38 39 39 39 38 36 35 34 34 33 35 36 36 37 38 38 39
4 3 1 1 1 4 6 5 3 3 4 6 5 5 4 4 5 4 4 4 1 5 6 5 2 3 4 6 4 5 7 4 3 3 7 8 7 7 6 5 5 5 5 5 6 6 6 5 3 4 8 10 10 13 16 18 19 21 22 24 26 28 28 29 30 31 32 34 36 38 39 39 39 38 37 37 37 36 36 36 36 35 36 36 37 37
2 1 3 3 1 4 6 5 4 6 5 6 5 6 4 2 3 3 3 1 3 6 4 3 1 3 6 8 8 11 10 5 6 6 5 5 6 7 6 6 5 5 5 5 5 5 5 6 5 4 5 6 8 10 12 14 16 19 21 23 25 27 28 28 29 30 32 34 36 38 39 39 39 38 38 39 39 38 37 37 36 35 35 36 37 37
1 4 3 1 2 2 6 6 3 0 1 4 5 5 4 3 1 3 4 2 4 5 3 3 2 3 4 4 8 13 10 4 6 7 6 4 5 6 6 6 6 6 5 4 5 5 5 6 8 8 7 7 8 10 12 14 16 18 20 22 24 26 27 27 29 30 32 34 36 37 38 38 38 38 39 39 39 38 37 37 37 37 37 37 38 39
4 4 4 4 2 4 6 5 6 6 4 4 4 6 5 5 5 4 4 3 4 3 3 3 2 3 2 2 5 9 8 4 4 6 6 5 5 4 5 6 6 6 6 5 5 5 6 8 10 10 10 11 12 12 13 15 16 18 20 22 24 26 27 27 29 31 33 35 35 36 37 38 38 39 39 39 39 38 38 37 37 38 38 38 39 38
4 4 6 2 1 6 7 4 4 7 2 2 3 5 3 5 5 2 3 5 3 1 3 2 3 4 3 6 8 5 6 5 3 4 5 5 6 5 6 6 5 6 6 5 5 5 7 9 11 12 14 15 15 16 17 17 18 19 21 22 24 26 27 28 29 31 33 34 35 35 37 37 38 38 39 39 39 39 38 38 38 39 38 38 38 37
3 4 5 2 2 3 5 3 3 4 3 2 2 3 5 4 7 4 2 1 3 2 4 2 4 5 3 7 9 4 5 6 3 4 5 5 6 4 4 6 5 6 6 5 5 6 7 9 11 13 15 16 17 18 20 21 20 21 22 23 24 26 27 28 29 31 33 33 34 36 36 37 38 39 40 40 40 39 38 38 38 38 38 38 37 36
5 2 4 1 2 3 1 3 2 2 4 5 3 6 3 2 4 4 1 3 3 2 5 2 4 5 2 4 7 6 4 6 4 5 3 3 3 2 4 5 6 6 5 6 6 6 8 10 12 13 15 16 17 19 21 22 22 22 23 24 25 27 28 29 29 31 33 33 35 36 37 37 38 39 40 40 40 38 38 38 39 38 38 38 37 35
5 2 5 1 3 4 4 3 1 3 3 5 4 4 4 2 1 1 2 1 1 2 5 4 4 5 4 5 5 3 4 6 3 5 4 3 3 2 4 6 7 6 5 5 5 6 7 9 12 13 14 15 15 18 20 21 22 23 24 25 26 27 28 28 29 31 32 33 34 36 36 37 38 39 39 40 39 38 38 39 39 38 38 37 35 34
4 4 4 1 1 1 3 2 4 1 2 3 2 2 3 2 4 3 3 3 3 3 3 4 4 4 6 6 6 7 9 6 2 7 5 2 1 1 3 5 6 5 5 5 5 5 6 8 10 10 11 13 13 15 17 18 20 22 23 23 25 26 27 28 30 31 32 33 34 35 36 37 38 39 39 39 38 38 40 40 39 38 38 36 35 34
3 3 4 2 2 1 2 3 6 7 5 3 3 4 2 1 2 2 1 3 4 4 3 3 5 6 5 4 8 9 8 5 6 7 6 2 2 3 3 3 4 4 5 5 5 5 7 10 12 10 9 11 12 14 15 16 18 19 20 22 23 25 26 29 30 31 32 32 32 34 37 38 38 38 38 38 38 39 41 40 40 39 37 35 35 34
2 3 4 2 1 3 5 5 6 9 7 6 6 7 6 4 4 3 2 1 2 3 4 3 6 8 5 4 6 6 5 5 7 7 5 3 3 4 4 4 4 4 4 4 5 5 6 9 12 13 14 14 13 14 16 16 18 19 20 22 22 24 27 29 31 31 31 31 32 34 36 37 38 38 37 37 38 40 41 41 40 38 36 36 36 34
3 4 4 3 3 6 7 5 3 5 3 3 3 5 5 4 4 6 5 3 1 2 3 3 4 6 4 6 6 6 7 6 6 7 6 4 5 5 4 4 3 2 3 3 4 4 5 10 16 19 20 20 17 16 16 17 19 20 21 21 22 24 26 29 31 30 30 30 32 34 35 35 37 38 37 38 40 41 41 41 39 37 36 36 35 34
2 4 4 1 3 4 5 4 2 1 1 2 2 2 4 3 3 5 5 4 3 4 3 3 5 6 1 2 4 5 5 4 4 6 5 1 3 2 3 3 4 5 7 8 8 8 12 19 22 21 21 22 20 19 19 19 20 21 21 21 22 24 24 26 29 30 30 31 32 33 33 35 37 37 38 40 41 42 41 40 39 37 36 35 35 34
4 3 4 3 1 3 4 3 2 3 0 3 3 3 5 5 6 4 2 3 2 6 7 5 8 7 3 2 3 3 1 1 1 2 2 6 6 7 8 8 8 9 11 12 12 12 13 15 16 19 22 22 22 21 21 20 21 22 22 23 24 25 25 25 27 30 31 31 32 33 33 35 37 38 40 41 41 42 41 40 38 37 36 35 35 34
5 4 5 6 6 6 5 5 5 2 2 2 2 5 6 7 8 5 2 3 5 6 7 6 9 8 2 3 5 5 4 4 5 6 6 7 7 6 6 6 7 8 8 10 10 10 11 11 13 18 23 24 23 22 21 21 22 23 24 25 26 27 27 26 27 30 32 31 32 34 35 36 38 40 41 41 41 41 41 40 39 37 36 35 34 34
4 2 5 8 9 9 8 7 6 5 6 5 6 8 8 8 10 7 3 5 8 5 4 7 10 12 10 4 4 3 4 4 6 7 7 6 4 5 6 5 6 6 6 8 8 9 9 10 12 17 22 25 25 24 24 25 26 27 28 29 29 28 28 27 27 29 31 31 33 34 36 37 39 41 42 42 42 41 40 39 39 38 37 35 34 34
5 2 5 7 7 7 6 6 5 6 8 10 9 8 8 8 10 10 8 11 8 4 9 12 8 11 18 11 6 3 5 4 4 3 4 5 5 6 6 5 6 7 7 7 8 9 10 10 11 15 21 26 27 30 31 30 31 30 29 31 31 30 29 27 26 27 29 30 32 34 36 38 39 41 42 42 41 40 40 40 39 38 37 35 34 35
5 3 4 5 3 4 5 5 5 5 5 6 6 7 8 8 10 13 16 15 10 8 12 9 6 10 18 12 4 6 7 6 5 5 5 4 5 7 6 7 8 7 8 8 8 8 9 9 10 13 19 24 26 29 31 32 33 32 32 32 32 31 30 28 26 25 27 29 31 34 36 38 39 40 41 41 40 40 41 40 39 37 36 35 35 35
4 2 2 4 2 3 5 5 5 5 3 3 5 7 8 9 12 14 14 11 7 7 10 7 4 11 15 9 2 6 7 7 6 5 3 1 2 5 6 8 9 7 7 7 7 8 8 8 10 13 17 20 22 25 27 29 31 32 33 35 35 34 32 28 26 25 26 28 31 34 35 37 38 40 40 40 40 41 40 39 38 36 35 35 35 34
2 2 2 4 1 4 6 6 5 6 5 4 5 7 8 10 11 10 7 5 3 6 10 7 8 14 11 6 6 5 5 5 8 6 3 2 4 7 7 7 7 7 7 7 7 7 8 8 10 12 15 17 20 23 24 27 29 31 34 36 37 37 34 30 28 27 27 30 32 33 34 35 37 38 39 39 39 39 38 36 35 34 33 33 33 33
1 1 2 4 1 5 5 5 5 6 5 4 7 10 13 12 9 7 5 6 7 8 9 6 7 13 8 2 6 4 5 6 8 6 3 1 4 3 2 4 6 6 6 7 7 8 9 9 9 12 16 19 23 24 26 28 30 31 33 35 37 37 36 33 30 29 30 32 34 34 34 34 35 36 37 37 37 37 36 34 32 31 32 32 32 32
3 2 1 3 2 6 4 2 4 5 4 6 11 14 15 12 10 8 6 8 11 10 7 7 8 11 7 2 5 8 4 2 3 4 1 1 2 4 5 4 6 6 6 6 7 7 8 9 12 15 18 22 25 27 29 30 31 32 34 35 37 37 37 36 33 32 33 34 35 35 35 34 34 34 35 35 35 34 32 31 32 32 32 32 32 31
5 5 3 3 3 6 3 4 5 3 7 10 7 9 13 15 16 14 13 15 14 9 5 6 8 9 10 8 9 11 7 1 2 2 1 4 6 5 4 4 5 6 7 7 7 7 8 11 15 18 20 23 26 29 31 32 33 34 35 35 36 37 37 37 36 35 35 36 36 35 34 33 32 33 34 33 32 31 30 31 32 32 32 31 31 32
7 7 4 3 3 3 3 5 3 7 9 7 2 4 10 13 14 14 15 16 12 8 7 9 12 14 15 13 9 5 4 1 2 4 4 8 6 5 5 5 6 5 7 8 8 9 12 15 17 20 23 26 27 29 31 32 32 34 35 35 36 37 37 37 36 36 37 37 36 35 33 32 31 31 32 31 29 29 29 31 31 31 30 30 31 32
8 6 3 3 3 2 3 5 7 6 3 4 4 2 2 2 4 5 8 10 9 10 10 11 15 16 13 8 4 2 2 2 1 4 5 7 5 5 4 5 6 5 6 8 8 11 16 19 20 22 24 26 27 29 30 30 31 32 34 35 35 36 36 35 35 37 37 36 35 34 33 31 29 29 29 28 27 28 29 30 30 30 29 29 29 30
7 6 3 3 4 3 4 6 5 4 6 8 7 4 3 4 6 6 5 7 7 8 9 11 14 13 7 3 4 4 2 2 3 4 5 3 4 3 1 3 6 8 9 11 13 15 18 20 20 21 23 24 25 26 28 29 30 31 33 34 34 35 35 34 35 36 36 34 34 34 33 30 29 28 27 26 26 28 29 29 29 29 28 28 28 29
6 5 5 5 4 3 5 6 4 4 9 9 5 4 5 7 8 8 6 5 4 4 6 7 8 6 2 2 5 5 2 1 2 4 5 3 2 2 4 5 8 10 11 13 17 18 19 20 20 21 22 24 26 26 27 29 30 30 31 33 33 33 33 34 35 36 36 36 36 35 32 30 28 27 26 25 26 27 28 27 27 26 26 26 27 28
5 2 2 4 3 3 4 5 5 5 6 6 4 5 5 6 9 8 4 5 4 5 4 4 5 4 3 1 4 3 4 2 3 4 6 7 4 4 6 8 10 13 14 15 16 18 19 20 20 21 22 24 27 28 29 31 31 29 29 31 31 31 32 34 36 36 36 37 37 36 33 30 28 26 25 25 25 25 25 25 25 24 24 24 25 26
5 2 2 4 5 4 5 4 3 3 4 3 3 3 2 4 9 8 4 6 5 5 4 5 6 4 4 3 0 4 4 1 4 4 6 7 7 7 8 9 11 14 18 20 19 18 18 17 17 19 21 23 26 28 29 30 30 29 28 29 29 29 30 33 35 35 36 37 36 34 32 29 27 25 24 24 24 23 23 22 22 22 22 22 23 23
4 3 4 6 7 7 7 5 3 4 5 5 5 5 4 3 5 4 7 5 5 6 5 5 6 5 5 5 2 1 2 5 5 5 6 7 8 10 12 14 16 17 19 22 22 20 18 17 16 18 20 20 22 25 27 27 27 28 28 27 27 29 31 32 34 34 34 33 32 31 28 26 25 24 23 22 21 21 20 20 20 20 20 21 21 20
4 3 3 6 7 6 6 5 4 5 5 6 5 3 4 3 2 5 4 2 6 7 5 4 5 5 5 5 4 4 5 5 4 5 7 7 7 8 11 15 18 18 20 23 24 23 22 22 21 22 24 25 23 23 24 23 24 27 27 26 28 29 30 31 32 32 30 29 28 27 25 24 22 22 21 20 19 19 19 18 18 18 19 19 19 19
6 5 3 5 6 4 4 5 5 6 4 5 5 2 3 5 5 4 3 2 4 6 5 5 5 4 5 4 5 4 4 6 6 6 6 6 7 8 11 13 14 16 20 23 26 28 27 25 25 25 28 31 30 29 26 22 23 25 25 27 31 31 29 29 29 28 27 26 25 24 23 22 21 19 18 18 17 17 17 16 16 17 17 18 18 18
5 5 4 5 5 5 5 6 5 3 2 4 5 4 4 5 4 6 7 4 3 3 5 5 5 5 5 4 5 5 4 5 6 6 6 7 7 8 10 13 14 16 19 21 24 28 28 26 27 28 31 32 32 32 30 25 25 26 26 29 31 30 29 29 27 24 24 24 24 23 22 20 19 17 16 15 15 15 15 15 15 16 16 18 18 18
6 6 5 5 5 4 4 5 3 2 1 2 3 4 4 3 3 5 7 5 4 4 4 5 4 5 5 5 5 5 4 4 4 5 6 7 8 8 11 15 17 19 20 21 23 26 26 26 28 29 32 33 32 32 31 29 26 27 31 33 32 30 30 28 25 22 22 22 22 22 20 19 18 16 15 14 14 15 15 15 15 16 16 17 18 18
3 3 4 3 3 3 2 2 2 3 1 1 2 2 3 3 3 4 6 4 3 4 4 4 2 1 1 2 2 3 3 5 6 7 6 7 8 9 11 15 19 20 22 22 24 25 26 27 27 27 30 34 33 31 32 32 28 29 33 35 32 31 30 27 24 22 21 20 20 20 19 18 17 16 15 14 14 15 16 17 17 18 18 18 17 17
3 2 3 2 3 4 3 3 4 5 3 1 2 4 4 3 2 2 4 3 3 4 4 4 4 3 3 3 3 4 5 5 6 7 7 6 7 9 10 13 17 20 22 23 25 26 25 23 24 25 27 32 33 31 30 32 31 30 32 33 32 30 29 26 24 23 21 20 19 18 18 17 16 15 14 14 14 15 15 17 18 19 19 19 18 17
2 2 3 3 3 3 3 3 3 1 2 1 3 3 3 2 2 3 4 4 5 6 5 5 5 4 3 3 4 4 5 5 5 6 7 6 7 8 10 14 17 21 23 24 26 27 25 22 23 24 25 29 32 31 30 32 32 31 30 30 30 28 27 25 24 24 22 20 17 16 16 15 15 15 14 14 14 15 16 17 19 20 20 21 21 21
1 2 3 4 3 1 2 2 0 3 4 3 3 2 1 1 3 5 6 6 7 7 6 6 6 5 5 3 2 3 5 6 5 5 7 7 7 8 12 16 19 21 22 23 24 25 25 24 24 26 27 29 31 31 31 33 33 31 28 28 27 25 24 24 24 23 23 20 17 15 14 13 14 14 14 14 14 14 15 17 18 20 20 20 21 22
3 3 2 2 3 3 4 4 4 3 1 1 3 2 2 3 6 6 6 7 8 7 5 6 6 6 6 5 4 4 5 6 6 7 7 7 7 11 16 19 21 22 24 25 25 25 25 25 25 26 29 32 32 31 32 34 34 31 28 26 24 23 22 22 22 22 22 20 17 15 13 13 13 13 13 13 13 13 12 13 15 17 18 17 18 18
5 6 5 5 4 5 5 6 6 4 3 3 5 4 2 3 6 7 6 6 5 5 4 4 4 4 4 5 6 6 4 6 9 10 8 9 12 16 18 20 21 22 25 27 27 27 27 28 28 27 29 32 33 33 34 35 34 31 28 24 22 21 20 20 20 20 20 19 17 16 14 14 14 13 13 13 13 12 12 11 11 13 14 14 15 15
Wind_Direction
84 101 150 184 193 194 194 182 154 152 143 136 125 108 140 164 236 256 262 284 163 146 257 242 247 261 263 269 267 273 282 249 250 254 254 255 252 249 247 248 248 243 249 254 249 242 235 232 230 229 228 227 226 225 223 221 221 220 219 218 218 218 216 214 212 212 213 213 214 216 218 221 222 223 225 226 227 228 229 229 228 227 226 226 225 224
67 120 209 218 204 192 186 170 125 105 90 95 120 111 84 155 221 256 251 288 346 147 266 324 311 271 256 263 268 266 268 257 241 238 246 247 246 249 247 249 249 249 260 263 254 245 237 234 231 228 226 224 223 224 222 221 222 220 218 218 220 218 215 214 214 213 214 214 215 216 218 221 222 222 223 224 225 227 229 230 229 228 227 226 226 225
53 193 233 230 195 135 104 139 118 100 92 83 110 120 112 212 250 294 299 311 1 108 273 344 332 281 266 258 262 257 247 251 242 230 239 245 248 249 245 247 251 258 264 258 253 248 239 236 231 226 224 222 225 226 223 221 221 219 217 219 220 219 217 217 217 216 217 218 218 219 221 222 222 224 224 224 225 227 229 231 231 230 229 228 228 227
127 246 241 208 157 109 79 109 115 97 84 88 107 128 191 251 167 276 297 315 357 52 283 336 317 284 286 279 268 262 250 256 257 241 240 242 242 246 248 249 247 250 256 259 257 249 242 240 232 224 222 222 223 223 222 220 219 218 218 220 220 220 220 219 218 219 219 219 219 220 223 224 225 227 227 227 228 229 229 230 230 231 231 229 229 228
200 253 229 119 121 123 103 89 117 126 80 15 132 140 175 207 171 199 281 331 358 11 20 9 331 293 312 331 290 288 286 271 284 287 266 251 243 250 262 260 247 244 250 256 259 253 241 237 232 225 223 222 220 220 222 221 220 220 220 221 221 222 223 222 221 220 220 219 219 220 222 224 226 227 227 227 228 228 227 228 228 230 231 230 229 228
229 262 143 112 90 101 119 125 160 153 153 312 223 173 173 166 157 174 4 41 37 350 342 30 10 293 310 322 280 299 331 301 308 318 281 271 262 248 251 256 251 252 253 252 259 262 246 235 233 229 224 220 219 221 223 223 223 222 222 222 222 222 223 224 224 223 221 221 220 220 219 219 221 223 224 225 226 227 227 228 228 229 231 231 229 228
237 336 73 119 109 91 107 155 209 145 116 278 240 176 152 129 128 140 76 62 81 257 301 57 103 267 300 293 265 293 326 308 312 310 283 282 282 261 253 263 262 256 254 255 260 262 250 235 227 225 222 219 222 224 224 222 223 223 223 223 222 223 225 225 226 225 224 223 222 222 222 222 222 224 228 229 230 231 232 232 232 231 231 230 229 229
183 54 56 81 86 92 115 176 209 131 114 235 236 135 126 123 136 145 107 98 212 242 322 18 114 242 292 265 264 306 324 314 314 302 288 286 291 289 281 274 265 252 245 245 254 256 249 233 222 223 223 221 224 226 223 221 222 223 224 225 225 226 226 227 227 226 225 225 224 224 225 226 227 229 233 234 233 235 236 236 235 234 232 231 230 230
158 134 146 114 87 112 174 212 199 120 102 242 205 128 130 131 135 123 98 95 13 17 316 314 122 191 276 271 297 338 319 302 296 285 288 297 305 306 300 285 274 271 257 238 243 256 258 244 232 232 231 228 226 225 224 223 224 224 225 226 227 227 228 228 228 228 228 228 227 227 226 228 231 233 236 238 238 238 238 239 238 237 236 234 233 232
61 180 186 135 120 176 195 231 202 134 109 193 135 97 76 74 79 78 90 98 41 22 254 255 198 189 268 285 310 341 289 268 273 278 286 297 309 321 328 319 304 307 310 284 264 274 278 265 248 240 238 235 230 226 227 227 226 226 227 227 228 229 230 230 230 230 230 229 229 229 228 230 233 234 236 238 240 239 238 239 239 238 238 238 237 236
322 278 181 116 139 178 153 133 173 148 131 126 95 64 46 32 35 43 58 81 64 299 253 243 226 173 272 281 255 220 225 219 253 309 315 322 335 344 345 337 325 326 336 334 323 324 320 295 263 244 239 240 235 229 229 229 229 229 230 230 231 233 232 232 232 231 232 231 230 231 231 232 234 235 236 236 237 238 237 238 239 239 240 240 240 239
354 32 346 300 161 128 100 75 36 17 71 94 83 75 63 355 9 20 1 41 117 257 262 256 225 150 221 260 251 245 257 235 194 287 319 332 335 331 321 307 307 311 314 323 326 336 347 342 306 241 235 240 239 235 233 232 232 232 233 234 235 235 234 234 234 233 233 233 232 234 234 234 236 235 236 236 237 237 236 238 239 240 240 241 241 241
17 39 291 309 250 137 102 76 30 4 32 76 91 94 90 341 6 354 311 334 222 247 268 273 218 188 229 250 254 258 265 240 193 226 283 312 311 311 302 289 293 297 296 303 311 320 327 326 315 291 260 255 249 244 243 240 237 236 237 237 238 239 237 236 235 234 234 234 234 235 235 236 237 237 237 238 239 239 239 240 240 240 240 240 241 241
284 311 308 5 300 187 132 127 133 245 124 130 138 132 131 131 129 259 271 282 261 261 280 283 261 261 274 269 247 251 261 231 191 232 252 235 243 271 284 293 299 297 300 303 303 306 298 289 292 290 285 276 260 253 251 247 244 243 243 242 242 243 242 238 237 236 235 236 237 237 237 238 238 238 239 240 241 241 242 242 242 243 243 243 244 244
179 279 239 174 214 190 168 175 160 150 161 176 156 137 149 159 162 207 219 215 246 276 296 292 260 211 206 295 247 240 263 264 219 250 263 246 247 266 296 305 302 299 312 318 302 289 273 268 273 275 273 267 261 256 253 250 247 246 247 246 246 246 245 241 239 238 238 239 239 239 239 240 239 240 241 242 244 244 244 245 246 247 247 247 248 248
155 247 252 243 176 165 177 215 134 116 130 225 128 109 170 188 147 139 192 179 178 287 295 259 237 216 202 280 278 250 269 283 272 295 320 317 308 337 333 307 304 310 311 306 294 285 277 272 268 268 269 266 265 262 258 253 250 250 252 251 250 251 249 245 243 242 242 242 241 241 241 241 241 242 243 244 245 245 246 247 248 249 250 250 251 251
137 267 281 347 8 170 171 183 130 134 178 179 143 179 219 178 118 112 240 38 81 249 270 215 248 290 328 297 298 328 299 287 333 4 353 320 309 331 316 294 308 320 314 308 296 285 287 286 277 269 266 265 263 262 260 258 255 256 259 258 256 255 252 248 246 245 245 243 243 243 243 243 243 243 244 245 246 247 247 248 249 250 251 252 253 253
151 236 293 110 187 267 199 125 71 41 135 129 185 211 201 94 83 106 197 352 36 250 274 248 239 279 316 279 309 12 335 290 342 36 33 349 333 318 298 301 316 319 316 310 296 288 293 292 289 284 278 274 269 267 266 265 264 263 263 262 260 259 256 253 251 249 247 245 245 246 245 245 245 246 247 248 249 249 249 249 249 249 250 251 252 253
145 182 302 55 179 288 358 105 79 346 93 131 189 179 116 129 186 109 156 196 176 243 279 289 268 254 207 225 279 319 285 281 350 78 95 61 42 3 341 335 332 335 329 316 310 305 295 287 289 294 295 292 284 277 274 272 270 267 265 263 262 262 261 259 256 253 250 248 247 248 249 249 249 249 250 250 251 251 250 250 250 249 250 251 251 252
139 170 261 295 204 312 19 146 194 245 52 73 109 115 93 142 167 164 160 162 176 206 260 299 312 268 224 207 209 230 250 251 140 125 142 124 9 319 349 339 324 323 305 295 297 287 286 297 303 304 307 309 303 292 286 279 273 269 267 265 262 262 261 259 257 254 252 251 250 250 251 251 251 251 252 252 252 252 252 253 252 251 251 251 251 251
114 167 217 284 317 188 185 205 186 174 161 148 162 171 172 110 116 164 172 125 142 167 204 278 294 267 249 204 183 205 234 223 153 149 179 224 295 287 297 295 278 267 265 274 278 284 300 309 311 318 322 316 306 298 293 286 281 277 273 269 265 264 262 261 259 256 254 253 252 253 252 253 253 253 253 253 253 253 254 254 254 253 254 253 251 250
146 161 169 176 226 200 228 243 196 187 180 165 181 195 184 157 125 146 234 257 124 166 179 194 275 267 237 199 191 185 185 180 159 154 180 226 252 266 272 260 252 265 294 303 284 273 271 282 306 329 330 316 300 292 291 288 286 282 280 278 273 270 269 268 264 260 259 257 255 255 255 255 255 255 255 255 255 254 255 255 254 254 254 254 253 250
128 106 126 174 216 216 242 266 218 212 203 137 183 197 169 153 135 149 207 240 186 225 170 131 277 274 200 178 183 158 153 163 165 155 157 197 217 222 238 229 222 268 315 324 287 265 280 308 327 333 325 314 302 293 290 289 287 282 282 283 277 275 279 278 271 266 263 260 259 259 258 258 257 256 255 255 255 256 255 255 255 254 254 254 254 252
126 107 127 216 300 308 307 325 3 13 121 162 239 173 148 169 151 148 180 180 172 215 166 128 256 269 270 172 149 136 160 159 159 166 145 115 280 307 351 6 12 354 347 346 340 339 337 334 333 327 318 314 308 299 293 288 285 281 280 281 277 278 284 284 278 272 265 261 261 261 261 261 259 257 256 255 256 256 256 256 255 254 254 254 254 253
193 169 134 123 6 337 334 324 320 334 260 199 227 195 170 148 112 107 145 131 206 225 179 177 241 254 310 11 86 73 68 95 99 199 56 25 8 5 9 6 358 354 350 344 339 335 330 328 323 315 311 310 308 302 295 290 287 284 284 285 283 283 284 284 281 277 271 264 262 261 261 262 261 259 257 256 257 257 256 256 256 255 254 253 252 252
183 177 156 155 181 206 209 212 220 221 181 203 220 198 188 161 148 155 149 153 229 231 175 189 241 247 272 68 69 34 23 12 352 350 4 18 23 2 345 337 333 336 331 324 320 318 316 315 312 310 309 309 309 306 302 302 302 301 299 297 294 291 289 286 280 277 274 268 263 261 261 261 260 259 259 258 258 259 258 257 256 255 254 252 251 251
142 179 192 183 200 208 197 210 212 155 150 198 213 192 188 186 178 167 142 190 218 222 202 225 240 253 257 202 120 23 6 339 331 346 343 338 340 315 297 294 307 309 303 303 304 304 306 306 305 307 308 311 315 316 317 318 317 315 312 309 307 302 297 293 285 276 274 271 266 263 262 263 262 261 261 261 260 259 258 257 256 255 254 252 251 250
114 206 209 183 212 215 174 182 186 152 173 200 199 186 185 188 180 176 198 215 204 196 241 239 219 246 261 243 184 228 277 277 274 277 283 283 285 296 302 301 297 291 290 294 294 296 300 303 306 308 309 314 319 322 325 325 323 321 317 315 315 311 306 302 292 280 276 272 267 264 266 268 267 265 264 263 262 259 257 255 254 254 253 251 249 248
125 207 215 161 199 215 166 159 151 145 172 177 164 171 177 178 180 193 214 219 194 196 242 245 179 221 259 263 182 185 238 256 239 222 233 261 292 312 319 304 292 289 293 298 297 300 305 306 305 307 312 318 322 324 326 326 325 325 322 321 321 318 315 310 299 288 281 274 268 269 272 272 270 267 266 264 261 259 257 254 253 251 250 249 248 248
135 198 198 143 158 222 205 187 155 142 138 133 160 174 173 185 196 205 220 221 201 227 261 276 246 245 260 272 225 185 225 263 261 232 232 256 274 280 280 278 286 298 308 313 314 313 312 308 306 310 315 319 321 323 325 326 327 328 326 325 325 323 321 316 305 295 286 277 275 276 275 272 270 268 265 263 261 260 257 254 253 250 248 247 247 246
166 194 139 114 111 252 220 192 168 157 164 201 220 206 197 205 211 214 224 207 179 252 267 279 283 273 265 265 270 237 190 238 271 284 350 67 194 228 251 275 299 322 330 328 324 321 318 314 314 317 318 318 321 323 323 324 326 326 324 325 324 323 322 317 309 301 292 286 285 283 277 273 270 267 264 263 262 259 256 253 252 250 248 247 246 246
124 164 68 89 131 254 227 191 182 150 142 207 242 233 222 216 212 210 203 188 189 225 251 262 269 271 266 232 272 271 150 191 268 307 9 118 200 219 324 334 328 335 337 329 326 327 325 322 322 322 322 323 325 325 325 324 324 322 321 322 320 320 319 315 309 304 297 295 293 288 283 278 274 269 266 264 262 259 255 252 250 249 248 247 245 244
132 133 79 115 191 262 271 179 155 126 135 230 242 235 230 229 228 224 218 215 208 203 223 238 238 258 275 221 251 280 272 211 286 320 295 171 86 52 42 10 336 328 325 318 312 312 314 314 317 320 322 324 324 324 325 324 321 319 320 320 319 318 317 314 311 306 301 298 295 290 287 283 277 273 269 266 263 260 255 250 248 246 245 245 244 243
162 169 191 166 192 249 247 106 105 151 222 242 235 206 211 225 230 232 236 235 225 203 209 252 260 269 277 264 259 280 298 32 117 228 211 91 80 59 30 351 329 320 316 314 308 305 307 311 316 319 321 322 323 323 323 323 322 321 321 320 319 317 314 312 310 307 303 299 295 292 289 285 279 275 272 269 264 259 254 251 248 246 244 242 240 238
171 179 190 172 174 209 152 115 149 218 228 245 261 167 197 219 221 225 240 247 243 230 227 248 259 258 260 266 275 292 313 9 177 193 124 99 101 69 25 338 321 318 312 313 315 314 317 319 320 322 323 324 325 325 325 325 326 324 322 320 318 315 313 311 308 305 302 298 296 295 292 288 282 278 274 270 264 259 254 251 249 247 244 241 238 236
168 171 163 160 174 155 127 169 215 243 278 300 291 239 165 170 176 205 255 260 241 227 224 232 244 250 257 274 307 324 287 313 236 194 152 122 114 86 43 318 310 309 294 295 298 302 310 316 317 318 320 323 325 326 327 328 329 325 321 319 318 315 313 311 306 303 300 297 297 298 296 292 287 282 277 271 264 258 253 251 249 246 244 241 238 237
152 154 159 188 199 187 185 208 234 299 306 282 262 228 160 145 150 164 227 257 239 222 221 226 239 253 269 294 317 313 294 90 111 200 213 147 116 113 207 270 284 285 285 294 297 298 303 308 312 315 317 319 322 326 329 330 329 325 320 319 318 315 313 310 306 303 302 302 303 302 299 295 290 284 279 272 265 259 256 252 250 247 243 239 236 234
155 171 188 198 204 186 197 221 223 235 254 253 232 197 186 176 163 159 192 248 256 228 223 215 223 243 279 333 315 323 350 60 163 223 270 315 39 353 314 295 283 281 284 294 299 303 306 309 313 317 318 319 323 329 333 331 329 327 322 319 319 317 314 311 307 307 307 307 307 305 302 298 291 285 279 272 265 261 259 255 252 249 245 240 237 235
174 176 170 190 207 182 195 221 211 211 243 245 216 224 224 177 144 136 181 244 225 219 224 153 155 201 207 260 317 21 50 332 263 236 275 299 328 332 311 306 306 305 303 302 302 303 306 310 314 316 318 321 325 332 335 332 330 327 321 319 320 317 313 309 309 310 309 308 307 305 303 298 291 284 277 271 266 263 260 257 254 251 246 241 238 237
179 154 155 198 214 205 209 232 230 230 255 234 195 214 222 136 118 127 215 245 199 205 216 151 156 206 199 185 336 57 84 252 261 260 281 301 319 320 308 305 309 310 310 313 314 311 309 309 308 309 314 319 324 330 332 331 328 323 319 319 317 312 309 309 310 310 308 306 305 303 301 297 291 285 279 273 269 264 258 254 249 244 241 237 233 233
186 181 186 203 217 218 220 235 252 254 240 205 182 172 158 101 87 152 220 223 173 197 214 166 179 210 182 167 165 121 194 217 239 277 303 317 318 313 312 312 312 312 313 315 317 319 317 314 309 308 310 317 322 326 328 329 324 317 315 315 310 308 310 312 312 311 308 305 303 300 299 295 290 285 281 275 269 262 254 248 242 236 232 228 225 224
186 191 194 201 215 224 224 228 255 267 240 187 180 177 157 157 203 209 215 151 152 186 201 185 200 203 174 176 189 202 241 263 278 297 305 306 301 300 308 314 318 321 322 322 325 329 327 323 322 321 320 323 325 324 326 327 319 313 312 308 304 309 314 314 313 312 308 304 300 297 296 292 288 283 279 273 266 258 250 242 234 228 223 218 215 213
177 176 195 200 201 206 211 213 229 254 237 156 144 140 166 193 201 176 143 129 160 170 173 191 218 203 176 204 233 230 257 289 300 304 299 293 294 299 306 313 316 319 323 327 329 331 330 327 325 324 323 325 326 326 327 325 316 311 307 302 305 313 316 314 314 312 306 301 298 295 292 289 284 280 274 269 261 253 245 236 227 220 214 209 204 200
181 180 194 200 189 176 194 211 210 216 209 157 160 178 189 198 187 143 133 154 196 180 164 184 229 228 194 206 255 260 261 277 292 310 316 310 310 310 311 316 318 318 322 326 326 328 329 325 322 321 321 322 324 326 326 324 319 313 305 304 311 316 314 313 312 307 302 299 295 292 289 284 279 274 267 262 254 245 238 230 221 212 207 202 196 190
211 198 178 183 189 175 189 219 207 142 137 171 166 166 155 132 127 134 128 133 177 194 173 171 214 232 208 204 238 259 274 294 303 312 314 312 316 320 317 318 319 320 322 323 324 327 327 322 319 318 318 319 323 325 324 323 320 313 308 311 316 316 313 312 308 301 297 294 291 288 285 280 274 268 261 253 244 237 230 221 210 202 198 194 190 187
236 188 140 147 208 217 220 223 151 118 125 123 98 103 116 104 108 133 128 121 148 163 139 129 145 217 219 209 243 284 309 326 326 316 312 312 314 317 317 316 318 322 323 323 325 326 325 321 318 316 315 316 319 322 323 322 319 312 310 313 316 314 313 310 302 296 292 289 287 285 281 275 270 262 254 245 236 231 226 217 207 198 192 189 187 185
290 181 138 143 202 208 213 188 155 154 179 157 65 53 66 77 89 130 127 107 85 85 81 80 76 56 36 25 4 327 314 329 329 315 314 319 314 313 317 316 317 320 321 321 321 321 321 319 315 313 312 311 314 318 320 318 317 315 313 314 314 313 311 305 297 291 287 283 283 280 275 270 265 257 247 237 227 221 216 211 205 198 191 187 184 182
264 173 168 202 205 194 212 216 193 225 295 5 80 88 87 81 38 53 68 76 77 72 62 60 69 72 52 22 356 326 316 324 324 312 312 316 313 313 315 314 315 316 316 317 319 320 319 316 311 309 307 306 310 316 316 315 317 318 316 313 313 311 306 300 293 287 283 279 276 272 268 264 258 251 241 229 221 214 209 205 202 201 199 197 193 188
152 160 178 198 200 210 260 243 235 352 340 16 79 99 73 88 92 73 61 59 59 53 43 38 46 62 64 34 346 326 321 316 316 315 311 308 308 309 310 310 311 311 311 313 315 316 314 312 310 309 307 306 310 314 315 315 317 318 316 313 311 308 301 295 290 284 280 276 269 262 258 253 249 245 235 224 217 213 211 209 206 205 204 204 203 200
159 181 167 150 174 214 234 208 166 148 195 163 129 116 33 65 93 87 69 60 52 41 30 23 27 53 62 40 10 3 340 322 321 318 306 300 304 306 308 310 311 311 312 315 316 314 312 311 311 310 308 309 312 315 314 314 315 316 315 312 309 304 297 291 287 281 277 273 265 255 246 239 236 235 229 222 214 207 206 208 208 207 205 204 206 207
185 190 174 154 183 222 222 193 167 152 167 164 143 127 60 59 94 93 78 71 61 40 26 16 9 27 45 37 31 27 357 316 319 323 313 303 306 308 309 310 310 311 313 314 315 315 314 314 315 313 310 311 313 314 313 312 313 314 313 309 304 298 291 285 280 275 272 269 262 252 241 229 224 222 220 218 213 202 194 191 195 204 208 208 207 208
Height
810 815 820 820 819 818 818 818 819 823 825 826 829 832 834 834 833 835 833 832 833 832 831 832 832 830 824 818 814 813 816 817 814 812 810 808 807 805 805 803 801 800 794 791 793 794 794 796 796 798 800 802 804 805 807 808 809 810 812 813 814 816 819 821 823 824 826 827 828 830 830 829 831 833 834 835 836 837 838 840 842 844 845 847 848 849
813 820 821 814 814 816 817 819 820 824 827 826 828 831 835 837 834 834 834 831 833 832 830 834 832 825 822 817 813 813 815 812 808 808 805 803 803 802 801 800 797 795 792 791 792 792 793 793 794 796 798 799 800 801 803 804 805 807 809 810 812 814 816 818 819 821 821 822 823 824 825 826 828 830 831 832 833 835 837 838 840 841 843 844 845 847
821 822 816 812 818 820 821 822 820 822 826 826 829 830 833 838 837 836 834 831 833 832 829 834 832 821 818 817 811 809 809 805 803 803 801 799 799 799 797 796 795 793 791 790 790 790 790 790 792 794 795 796 796 797 799 800 802 805 806 808 810 812 813 815 816 818 818 820 822 823 824 825 827 828 829 831 832 834 835 836 837 838 839 841 842 843
826 820 813 815 820 818 821 825 822 822 827 827 829 830 833 840 839 834 833 833 835 836 834 834 831 820 813 812 805 804 807 804 802 801 799 798 796 793 792 792 792 790 788 787 787 788 788 788 790 791 791 792 793 795 796 798 800 802 803 805 807 809 810 812 814 815 817 819 821 823 824 825 826 827 828 830 831 831 832 832 833 834 835 837 838 840
819 817 817 817 818 816 819 825 823 822 829 832 830 829 831 834 835 835 835 835 836 839 838 833 828 817 810 810 801 799 805 801 800 800 795 795 794 792 791 789 788 787 786 786 785 786 787 787 787 787 787 789 790 792 792 794 796 797 800 801 804 806 808 810 812 814 816 818 820 822 823 825 825 826 827 827 826 826 827 828 828 829 831 833 834 836
816 817 818 816 817 819 819 822 823 823 829 833 830 828 828 827 830 835 834 834 836 840 841 839 835 822 811 810 803 798 800 796 797 797 790 788 789 789 789 786 785 786 785 786 784 784 785 784 784 784 785 787 787 788 789 791 793 795 797 799 802 804 806 808 810 812 815 816 817 819 820 821 821 822 821 820 820 821 823 824 825 827 829 830 831 833
818 818 817 815 817 820 820 822 825 826 830 833 831 833 832 827 829 833 832 835 840 843 845 845 844 834 817 809 806 804 802 796 793 792 786 784 784 784 786 784 784 785 784 785 784 783 783 782 782 782 782 783 783 784 787 790 792 794 796 798 800 802 803 806 808 810 812 813 815 815 816 817 817 817 816 816 818 820 821 822 824 825 826 828 829 830
819 818 818 817 819 822 822 823 826 826 828 832 833 835 833 828 830 833 833 837 844 845 846 846 845 845 831 813 811 810 804 797 792 789 784 782 783 784 785 785 783 783 783 784 782 781 781 780 780 780 779 781 782 784 787 789 790 792 794 796 798 800 802 804 806 807 809 810 812 813 814 814 814 813 813 815 818 819 820 821 821 822 823 824 826 826
820 817 818 818 821 824 823 825 829 826 826 832 836 837 835 832 834 836 836 841 850 849 845 845 846 849 836 815 813 813 805 800 794 788 784 783 786 786 784 785 783 783 783 783 782 781 780 779 779 779 779 780 782 784 786 787 789 791 793 795 797 798 800 801 803 805 806 808 809 810 811 811 811 811 812 814 816 817 818 818 818 819 820 821 822 823
823 822 821 818 818 822 826 832 833 825 824 833 838 838 837 839 840 841 842 842 850 851 844 842 844 846 833 811 809 811 803 799 793 788 787 786 788 787 785 784 782 783 784 783 783 782 780 780 779 779 780 781 782 784 786 787 789 791 793 794 795 796 798 799 801 802 804 805 806 807 807 807 808 809 810 812 812 814 814 814 815 816 816 817 819 820
825 824 824 822 820 824 829 834 836 830 829 832 833 833 835 840 841 844 849 846 849 850 844 846 847 847 839 815 805 805 799 796 794 790 789 786 787 787 786 785 783 783 784 783 783 782 781 781 780 780 781 782 783 784 786 787 788 790 791 793 793 794 796 797 799 800 801 803 803 803 804 804 805 806 808 808 808 810 811 810 811 812 813 814 815 816
824 823 825 825 826 829 827 829 834 835 834 831 829 832 836 843 846 848 853 852 853 849 845 855 858 852 844 820 802 801 799 799 799 793 790 787 787 788 786 785 785 785 784 784 783 782 782 782 781 782 782 783 784 785 787 788 789 790 791 792 792 793 794 795 797 798 798 800 800 800 800 801 802 803 804 804 804 805 806 806 808 809 810 811 811 812
824 825 828 826 826 826 822 828 835 834 834 832 832 837 843 852 856 853 857 860 858 851 849 857 856 846 837 816 801 798 793 797 800 794 791 790 788 788 786 785 786 786 785 785 785 785 785 784 784 784 784 784 786 786 788 789 789 790 791 791 791 791 793 794 794 795 796 796 796 797 798 798 799 801 801 801 801 802 803 804 805 806 807 807 808 808
828 830 830 826 825 823 820 826 834 835 835 833 832 836 842 855 862 858 864 868 859 851 853 859 853 839 824 807 799 796 790 793 798 793 792 792 789 788 786 786 786 785 785 786 787 787 786 786 785 785 786 786 786 787 787 788 789 790 790 790 790 790 792 792 793 793 793 793 793 795 795 796 797 797 797 798 798 799 801 801 802 803 803 803 803 803
830 831 826 822 822 821 819 820 822 826 832 834 833 836 836 841 848 850 853 852 848 849 855 858 846 826 810 800 797 797 793 795 797 793 793 791 790 791 789 788 785 784 786 787 787 787 787 786 786 786 786 785 786 786 787 787 788 788 789 789 789 789 790 791 791 791 791 791 792 793 794 794 794 795 795 795 796 797 798 798 799 799 799 799 799 801
830 826 820 820 820 818 818 819 818 822 831 839 840 839 835 831 833 845 854 852 852 854 853 850 837 818 808 798 793 795 792 793 795 793 792 792 792 792 789 786 785 785 787 787 786 787 786 786 786 786 786 785 786 786 786 786 787 787 787 788 787 788 788 789 789 790 790 790 791 791 791 792 792 793 793 792 793 794 794 795 795 795 795 796 796 798
828 825 822 823 822 819 819 819 820 822 826 837 840 835 836 834 829 840 858 864 861 853 845 842 830 816 812 799 789 792 790 787 792 793 792 792 791 790 788 785 786 786 786 787 787 787 786 786 785 785 784 785 785 785 785 785 786 786 786 786 786 786 787 787 788 788 788 789 789 789 789 790 790 790 790 789 790 790 791 792 791 791 792 792 793 794
816 821 825 825 822 823 825 822 822 823 824 831 835 830 834 839 834 834 846 856 861 856 843 839 831 819 817 808 793 793 791 786 791 793 792 792 791 790 788 786 786 787 787 788 788 788 787 785 785 784 783 783 783 783 783 784 785 785 785 785 785 785 785 785 786 786 786 787 787 787 787 788 788 788 787 787 788 788 789 788 788 788 788 788 789 791
805 813 825 830 826 825 826 823 824 827 826 826 827 826 830 835 837 840 844 846 855 857 843 835 834 824 817 809 796 790 787 784 790 793 790 791 792 790 788 787 788 788 788 788 787 787 787 785 785 784 783 782 782 782 782 782 783 782 782 783 782 782 782 783 784 783 784 784 784 785 785 786 786 786 786 786 787 787 786 785 785 785 784 785 786 787
803 808 820 830 830 827 826 824 826 828 828 827 827 828 830 831 832 837 841 840 843 850 844 834 828 816 807 803 792 786 783 781 789 795 792 792 791 790 789 789 790 790 789 789 789 789 787 785 785 784 782 781 781 781 780 780 781 780 780 781 780 780 780 780 780 780 780 781 782 782 782 783 783 783 783 784 784 785 783 783 783 782 782 783 783 784
803 806 816 828 833 830 825 822 823 822 823 825 826 829 831 833 836 835 839 840 837 839 844 840 826 808 800 796 784 781 783 783 789 792 791 791 791 790 791 790 790 791 791 791 790 789 787 786 785 783 782 781 780 780 779 778 779 778 778 779 778 778 778 777 777 777 777 778 779 779 779 779 780 780 781 781 781 781 780 780 780 780 781 782 781 781
801 808 816 828 832 826 818 818 819 816 814 816 819 823 823 826 833 836 840 843 839 835 837 839 829 804 791 789 782 781 785 785 788 789 790 792 791 791 791 790 790 790 790 791 790 789 788 786 784 782 780 780 780 779 779 778 778 778 777 777 777 777 776 774 774 775 775 776 776 776 775 776 777 777 778 778 778 777 776 777 778 779 780 780 779 779
798 808 815 822 826 822 818 821 823 819 815 816 817 818 819 821 823 826 833 837 837 838 837 840 833 802 781 784 783 782 786 787 789 791 791 792 792 791 791 790 790 788 787 788 786 785 784 781 779 779 779 780 779 779 779 779 778 778 777 777 776 776 774 773 773 773 773 774 773 772 773 773 773 774 774 774 773 773 773 773 775 776 777 777 778 778
796 804 810 817 822 820 818 820 822 821 818 819 819 818 820 822 819 820 826 828 828 831 832 839 835 803 782 787 788 787 791 791 793 794 791 789 788 786 785 784 784 783 782 781 780 780 779 778 778 779 779 779 778 779 778 777 777 776 775 775 774 773 773 772 771 770 770 770 769 770 771 771 771 771 770 769 768 768 769 770 771 772 773 774 775 775
793 800 807 816 823 824 823 822 821 821 820 818 817 817 817 818 822 826 829 831 828 822 821 830 825 800 789 794 792 791 790 785 788 791 787 785 783 781 782 782 783 785 784 783 783 782 782 781 781 780 779 778 777 777 776 775 775 774 773 773 772 771 771 771 770 768 767 767 766 766 767 767 768 767 766 765 765 765 766 767 768 769 769 770 771 771
789 796 799 808 817 821 821 818 815 815 819 818 815 815 816 817 820 821 824 830 827 819 820 822 811 794 791 792 789 788 787 782 783 786 783 783 785 786 787 788 788 789 789 788 788 787 786 785 783 781 779 777 776 775 774 773 772 772 771 771 770 769 769 769 768 766 765 764 764 763 763 763 763 762 761 761 761 762 763 764 765 765 766 766 767 767
788 793 792 794 800 803 802 802 805 808 810 812 811 812 815 816 815 816 821 824 819 817 821 816 804 796 791 790 790 789 788 787 787 787 786 787 790 791 792 791 792 791 791 791 790 789 788 786 784 781 778 776 775 774 773 772 771 771 770 768 768 767 766 766 765 764 763 762 761 760 760 759 758 757 757 757 757 757 758 760 760 761 761 762 763 764
787 791 793 792 792 796 795 797 805 806 802 803 806 809 814 816 816 817 817 811 809 817 816 805 804 803 791 786 793 792 789 790 790 791 791 790 791 792 792 793 793 792 792 792 791 789 788 787 785 783 780 777 776 774 773 772 771 770 769 767 766 765 763 763 762 761 761 759 758 757 756 755 754 754 754 754 754 754 754 754 755 756 757 758 759 759
784 789 794 794 796 799 799 800 804 803 801 803 806 809 812 815 816 815 810 803 805 812 805 797 805 805 788 784 793 793 789 789 790 792 792 792 793 793 793 792 790 790 791 792 792 792 791 790 787 785 782 780 778 775 773 771 769 768 766 764 763 762 761 760 759 758 758 756 755 754 752 752 751 751 751 751 751 751 750 750 750 751 752 754 754 754
784 788 794 796 798 800 800 803 803 802 805 807 807 807 809 810 810 809 807 806 808 809 803 804 812 806 791 789 794 793 791 789 789 791 793 795 796 794 792 790 789 791 793 794 794 793 791 790 788 786 784 782 780 777 775 772 769 767 765 762 760 760 759 758 756 755 754 752 751 750 749 749 748 748 747 747 746 746 746 747 747 748 748 749 750 751
784 790 795 795 798 799 798 802 806 806 806 807 807 808 807 805 807 810 811 812 813 811 807 809 813 803 789 788 790 790 792 790 787 789 794 797 796 792 791 792 792 794 795 795 794 792 791 790 788 786 784 782 780 779 776 774 771 768 766 763 760 759 758 756 754 752 751 749 747 746 746 745 745 744 744 743 743 742 742 743 744 745 746 746 747 748
786 793 797 797 801 800 794 798 806 808 810 811 809 805 803 803 806 808 808 808 807 806 806 811 811 797 784 785 786 785 790 792 789 791 795 795 793 793 795 796 797 797 797 796 795 793 791 789 787 786 784 782 780 779 777 775 772 769 767 764 761 758 757 755 753 751 749 746 745 743 742 742 741 741 740 739 739 739 739 740 740 741 742 743 743 745
791 794 797 801 805 801 795 797 802 806 812 811 799 792 794 798 800 801 803 801 799 801 804 806 799 787 783 787 787 785 788 792 793 794 795 794 795 798 800 799 799 798 798 797 796 794 792 790 788 786 784 782 780 778 777 775 772 769 766 764 761 758 755 753 751 749 746 744 742 741 739 739 738 737 736 736 736 736 736 736 735 735 736 737 739 740
795 795 798 803 802 801 802 802 803 809 808 793 779 777 783 787 789 793 793 790 789 794 796 794 789 785 784 785 785 784 787 793 798 797 795 795 797 799 800 799 799 798 797 796 794 793 791 789 788 786 784 782 781 778 776 774 771 768 765 763 760 757 754 752 749 747 744 741 740 738 737 736 735 734 733 733 733 733 733 733 732 731 731 732 733 734
794 796 799 800 798 802 808 808 807 806 794 777 772 774 776 777 780 784 785 783 785 790 792 790 787 783 780 779 783 786 790 795 799 796 795 796 797 798 798 798 798 797 796 794 792 790 789 787 786 784 782 780 779 777 774 772 769 766 763 760 758 755 753 751 748 745 742 739 737 736 735 734 732 731 730 730 730 730 729 729 729 730 730 730 730 730
790 794 796 797 797 803 811 809 801 790 780 775 777 778 778 780 782 786 788 786 785 786 788 788 784 778 778 781 785 789 793 796 796 794 795 796 796 797 798 796 796 796 795 794 792 790 788 786 784 783 781 779 777 775 773 770 768 764 760 758 756 753 751 749 746 743 740 738 736 735 734 732 730 729 728 728 728 727 726 726 726 727 728 728 728 728
788 790 792 794 793 795 800 800 793 787 783 777 774 774 777 777 778 782 785 783 782 783 784 783 781 778 781 785 787 791 794 792 791 792 794 795 795 795 796 796 795 795 794 792 791 790 788 786 784 782 780 779 776 774 771 768 766 763 759 756 754 751 748 746 743 740 738 737 735 734 732 731 729 727 726 726 725 724 724 724 724 724 725 725 726 726
788 786 788 792 791 790 794 795 795 796 790 776 768 768 769 770 771 775 779 779 781 786 785 782 781 781 783 786 788 790 788 785 786 790 791 792 794 794 793 794 794 793 792 791 788 787 786 784 783 781 779 777 774 772 770 767 764 761 758 755 752 749 747 744 741 738 736 734 732 731 730 728 727 725 723 723 722 721 722 722 722 723 724 724 724 724
790 789 789 793 794 794 796 794 791 789 779 769 766 765 768 771 769 774 783 782 780 785 788 784 783 783 784 787 789 787 784 782 786 791 792 790 792 793 792 791 790 789 789 788 786 785 784 782 781 780 777 775 771 769 767 765 762 759 757 754 752 749 746 742 739 737 735 732 730 728 727 726 724 723 721 720 719 719 719 720 720 721 722 723 723 723
793 794 795 797 795 793 795 792 787 780 771 768 767 768 772 772 769 777 789 784 778 784 788 784 783 784 785 789 790 787 786 786 788 791 791 790 790 791 790 789 787 786 785 784 784 783 782 781 780 777 776 774 770 768 766 763 760 758 755 753 751 748 745 742 739 737 734 731 728 726 725 724 722 721 720 718 717 717 717 717 717 718 719 721 722 722
791 792 792 793 792 792 793 792 787 778 769 766 767 769 771 771 774 782 783 776 776 784 786 784 784 785 786 788 789 788 787 788 789 790 790 790 789 788 788 787 786 785 783 781 781 780 779 778 777 775 773 771 769 767 764 762 759 756 753 751 749 745 743 741 738 735 732 729 727 725 723 722 721 720 719 717 717 716 715 714 714 715 716 717 719 720
786 787 787 788 789 790 789 791 792 781 767 763 766 770 771 772 777 779 775 775 780 782 782 785 784 784 786 786 786 787 787 787 789 790 790 790 789 788 787 786 784 783 782 779 777 776 775 773 772 770 768 767 766 764 762 760 757 754 752 749 746 743 740 738 735 733 730 728 725 723 721 720 719 718 717 717 716 715 714 714 713 713 713 714 715 717
777 780 784 782 782 786 790 794 795 781 765 762 767 769 770 769 769 771 774 780 783 780 781 785 783 783 786 785 784 787 787 787 789 789 789 790 789 787 786 785 784 782 780 777 775 773 771 769 767 766 764 763 761 760 759 757 754 752 750 747 743 741 738 735 733 731 729 727 724 722 720 719 717 716 715 715 715 715 714 714 713 713 713 713 713 715
771 774 778 774 772 781 787 784 778 767 761 765 765 763 765 767 767 770 774 779 783 783 783 783 782 784 785 783 784 787 787 788 789 789 789 788 787 786 785 783 782 781 779 777 775 772 770 767 765 763 761 760 759 757 755 754 751 748 746 742 740 738 736 733 730 728 727 725 724 722 720 718 717 715 714 714 713 714 714 714 714 713 713 713 713 714
762 762 766 762 761 768 770 766 764 763 765 767 766 763 765 768 771 773 773 775 780 783 783 783 783 784 785 785 786 786 786 789 789 789 790 788 786 785 784 781 780 779 777 776 775 772 770 767 764 761 758 756 756 755 753 751 749 746 741 738 737 736 733 731 729 726 724 723 722 721 720 718 716 715 713 712 712 712 712 713 713 713 713 713 713 714
758 760 760 758 758 761 763 763 767 769 766 765 767 769 770 770 772 774 772 773 777 780 783 785 784 784 786 787 787 787 787 788 788 788 788 787 785 784 783 780 779 777 775 774 773 771 769 766 763 761 757 754 753 753 751 749 747 744 739 736 735 734 731 729 727 724 722 721 720 720 719 717 716 714 713 712 711 710 710 711 711 712 713 713 713 713
760 761 759 758 759 760 761 764 767 767 766 766 768 770 771 771 773 774 773 775 778 780 783 785 785 786 787 786 786 787 787 788 788 787 786 785 784 783 781 779 778 776 774 773 771 769 768 766 763 761 757 753 751 751 749 746 744 742 738 735 733 732 730 728 726 723 721 719 717 717 718 717 716 714 712 711 710 709 709 709 710 711 711 711 712 712
757 758 760 759 759 761 763 767 769 769 769 771 772 772 772 772 773 776 778 779 781 782 784 785 786 787 788 787 787 788 787 788 788 787 785 785 783 781 780 779 776 774 773 772 770 768 766 764 762 759 757 753 749 748 747 743 741 739 736 733 732 730 728 726 725 723 721 718 716 715 715 716 716 715 713 711 710 709 708 708 708 709 709 709 710 710
756 758 761 760 759 763 767 770 773 770 768 773 775 774 774 775 775 778 781 780 781 783 785 786 788 788 789 789 789 788 788 788 788 787 786 784 783 781 780 778 776 775 772 770 769 767 765 763 760 757 754 750 747 746 743 740 737 736 733 731 730 728 726 725 724 723 721 718 716 713 713 714 715 715 714 712 710 709 708 707 707 707 708 709 709 709
758 757 760 762 762 762 761 764 768 766 763 770 777 777 778 779 778 779 781 783 785 787 787 787 788 789 790 790 789 790 790 788 787 787 786 784 783 782 779 776 775 772 770 768 767 765 763 761 758 755 751 746 744 742 740 737 735 733 731 729 728 726 725 723 722 721 721 719 717 714 712 712 713 714 715 713 711 710 708 707 707 707 707 708 709 710
755 753 755 758 760 759 757 760 764 762 761 770 779 782 782 782 780 781 784 787 789 790 790 789 789 790 791 791 791 791 791 790 788 787 785 782 781 780 778 776 774 771 769 767 764 762 760 757 755 753 749 745 742 739 736 734 732 730 729 727 726 724 723 722 721 720 719 719 718 716 713 711 711 712 714 714 713 711 710 708 708 707 707 708 708 710